^^
Station Historical Data
 
Daily Summary for May 27, 2018 Units:  Metric    English   Both
« Previous Day
Next Day »
Daily Weekly Monthly Yearly Custom
  Current: High: Low: Average:
Temperature: 24.1 °C -17.8 °C 8.7 °C 13.7 °C
Dew Point: 2.3 °C -17.8 °C 1.5 °C 2.3 °C
Humidity: 24% Humidity% 24% 49%
Wind Speed: 0km/h 0km/h 0km/h 1.3km/h
Wind Gust: 9.7km/h 0km/h - -
WindCalm - - South
Pressure: 1017.2 hPa 0 hPa 1017.2 hPa -
Precipitation: 0 mm      
Historical Graphs
 
 
Tabular Data for May 27, 2018
Time Temperature Dew Point Pressure Wind Wind Speed Wind Gust Humidity Rainfall Rate (Hourly) solar Conditions
-17.8 °C -17.8 °C 0 hPa Calm     Humidity% 0 mm SolarRadiationWatts/m^2 W/m2 Conditions
00:04 10.8 °C 1.9 °C 1018.2 hPa Calm   4.8 km/h 54% 0 mm 0.0 W/m2
00:09 10.9 °C 1.7 °C 1018.2 hPa Calm   1.6 km/h 53% 0 mm 0.0 W/m2
00:15 10.9 °C 2 °C 1018.5 hPa Calm   3.2 km/h 54% 0 mm 0.0 W/m2
00:20 10.9 °C 2 °C 1018.2 hPa Calm   1.6 km/h 54% 0 mm 0.0 W/m2
00:25 10.9 °C 2 °C 1018.5 hPa East 4.7 km/h 4.8 km/h 54% 0 mm 0.0 W/m2
00:30 10.9 °C 1.7 °C 1018.2 hPa Calm   6.4 km/h 53% 0 mm 0.0 W/m2
00:35 10.9 °C 1.7 °C 1018.5 hPa Calm     53% 0 mm 0.0 W/m2
00:40 10.9 °C 2.2 °C 1018.5 hPa Calm     55% 0 mm 0.0 W/m2
00:45 10.9 °C 2.2 °C 1018.2 hPa Calm     55% 0 mm 0.0 W/m2
00:50 10.8 °C 2.4 °C 1018.2 hPa Calm     56% 0 mm 0.0 W/m2
00:55 10.7 °C 1.8 °C 1018.2 hPa Calm   3.2 km/h 54% 0 mm 0.0 W/m2
01:00 10.6 °C 1.9 °C 1018.2 hPa ESE 1.4 km/h 9.7 km/h 55% 0 mm 0.0 W/m2
01:05 10.6 °C 1.9 °C 1018.2 hPa East 3.2 km/h 8 km/h 55% 0 mm 0.0 W/m2
01:10 10.6 °C 1.9 °C 1018.2 hPa East 3.2 km/h 8 km/h 55% 0 mm 0.0 W/m2
01:16 10.6 °C 1.9 °C 1018.2 hPa East 4.7 km/h 4.8 km/h 55% 0 mm 0.0 W/m2
01:21 10.6 °C 1.9 °C 1018.2 hPa Calm   6.4 km/h 55% 0 mm 0.0 W/m2
01:26 10.6 °C 1.7 °C 1018.2 hPa East 1.4 km/h 4.8 km/h 54% 0 mm 0.0 W/m2
01:31 10.6 °C 1.7 °C 1018.2 hPa East 1.4 km/h 8 km/h 54% 0 mm 0.0 W/m2
01:36 10.6 °C 1.7 °C 1018.2 hPa East 1.4 km/h 4.8 km/h 54% 0 mm 0.0 W/m2
01:41 10.6 °C 1.7 °C 1018.2 hPa East 4.7 km/h 6.4 km/h 54% 0 mm 0.0 W/m2
01:46 10.7 °C 1.8 °C 1018.2 hPa SE 1.4 km/h 3.2 km/h 54% 0 mm 0.0 W/m2
01:51 10.7 °C 1.8 °C 1018.2 hPa Calm     54% 0 mm 0.0 W/m2
01:56 10.7 °C 2 °C 1018.2 hPa Calm   1.6 km/h 55% 0 mm 0.0 W/m2
02:02 10.6 °C 2.2 °C 1018.2 hPa Calm   3.2 km/h 56% 0 mm 0.0 W/m2
02:07 10.4 °C 2 °C 1018.2 hPa SE 3.2 km/h 4.8 km/h 56% 0 mm 0.0 W/m2
02:12 10.3 °C 1.7 °C 1018.2 hPa ESE 1.4 km/h 3.2 km/h 55% 0 mm 0.0 W/m2
02:17 10.2 °C 1.6 °C 1018.2 hPa Calm   1.6 km/h 55% 0 mm 0.0 W/m2
02:22 10.2 °C 1.8 °C 1018.2 hPa Calm     56% 0 mm 0.0 W/m2
02:27 10.1 °C 1.7 °C 1018.2 hPa Calm   3.2 km/h 56% 0 mm 0.0 W/m2
02:32 10.1 °C 1.7 °C 1018.2 hPa Calm   3.2 km/h 56% 0 mm 0.0 W/m2
02:37 10.1 °C 1.7 °C 1018.2 hPa ESE 4.7 km/h 6.4 km/h 56% 0 mm 0.0 W/m2
02:43 10 °C 1.6 °C 1018.2 hPa Calm   6.4 km/h 56% 0 mm 0.0 W/m2
02:48 9.9 °C 1.8 °C 1018.2 hPa ESE 1.4 km/h 3.2 km/h 57% 0 mm 0.0 W/m2
02:53 9.9 °C 2 °C 1018.2 hPa Calm     58% 0 mm 0.0 W/m2
02:58 9.8 °C 2.4 °C 1018.2 hPa Calm     60% 0 mm 0.0 W/m2
03:03 9.6 °C 2.2 °C 1018.2 hPa Calm     60% 0 mm 0.0 W/m2
03:08 9.4 °C 2.3 °C 1018.2 hPa Calm     61% 0 mm 0.0 W/m2
03:13 9.2 °C 2.1 °C 1018.2 hPa Calm   1.6 km/h 61% 0 mm 0.0 W/m2
03:18 9.1 °C 2 °C 1018.2 hPa Calm     61% 0 mm 0.0 W/m2
03:24 9.1 °C 1.7 °C 1018.2 hPa Calm   1.6 km/h 60% 0 mm 0.0 W/m2
03:29 9.1 °C 1.5 °C 1018.2 hPa ESE 1.4 km/h 3.2 km/h 59% 0 mm 0.0 W/m2
03:34 9.1 °C 1.7 °C 1018.2 hPa ESE 1.4 km/h 3.2 km/h 60% 0 mm 0.0 W/m2
03:39 9.2 °C 1.8 °C 1018.2 hPa Calm     60% 0 mm 0.0 W/m2
03:44 9.2 °C 1.8 °C 1018.2 hPa ESE 1.4 km/h 1.6 km/h 60% 0 mm 0.0 W/m2
03:49 9.2 °C 1.6 °C 1018.2 hPa Calm   3.2 km/h 59% 0 mm 0.0 W/m2
03:54 9.2 °C 1.6 °C 1018.2 hPa East 1.4 km/h 4.8 km/h 59% 0 mm 0.0 W/m2
04:00 9.2 °C 1.6 °C 1018.2 hPa Calm   3.2 km/h 59% 0 mm 0.0 W/m2
04:06 9.2 °C 1.6 °C 1017.8 hPa East 4.7 km/h 8 km/h 59% 0 mm 0.0 W/m2
04:11 9.2 °C 1.6 °C 1017.8 hPa East 1.4 km/h 4.8 km/h 59% 0 mm 0.0 W/m2
04:16 9.2 °C 1.6 °C 1017.8 hPa East 1.4 km/h 3.2 km/h 59% 0 mm 0.0 W/m2
04:21 9.2 °C 1.6 °C 1017.8 hPa ESE 3.2 km/h 3.2 km/h 59% 0 mm 0.0 W/m2
04:26 9.3 °C 1.7 °C 1017.8 hPa ESE 1.4 km/h 3.2 km/h 59% 0 mm 0.0 W/m2
04:31 9.3 °C 1.7 °C 1017.8 hPa Calm   3.2 km/h 59% 0 mm 0.0 W/m2
04:36 9.3 °C 1.7 °C 1017.8 hPa ESE 1.4 km/h 3.2 km/h 59% 0 mm 0.0 W/m2
04:41 9.4 °C 1.6 °C 1018.2 hPa Calm   4.8 km/h 58% 0 mm 0.0 W/m2
04:46 9.4 °C 1.6 °C 1018.2 hPa Calm   1.6 km/h 58% 0 mm 0.0 W/m2
04:52 9.5 °C 1.9 °C 1018.2 hPa SE 1.4 km/h 1.6 km/h 59% 0 mm 0.0 W/m2
04:57 9.5 °C 1.6 °C 1017.8 hPa ESE 1.4 km/h 8 km/h 58% 0 mm 0.0 W/m2
05:02 9.6 °C 1.7 °C 1018.2 hPa Calm   3.2 km/h 58% 0 mm 0.0 W/m2
05:07 9.6 °C 1.7 °C 1017.8 hPa ESE 1.4 km/h 3.2 km/h 58% 0 mm 0.0 W/m2
05:12 9.6 °C 1.7 °C 1017.8 hPa Calm   1.6 km/h 58% 0 mm 0.0 W/m2
05:17 9.6 °C 1.7 °C 1018.2 hPa ESE 1.4 km/h 4.8 km/h 58% 0 mm 0.0 W/m2
05:22 9.5 °C 1.6 °C 1017.8 hPa Calm   4.8 km/h 58% 0 mm 0.0 W/m2
05:27 9.4 °C 1.8 °C 1018.2 hPa Calm   1.6 km/h 59% 0 mm 0.0 W/m2
05:32 9.4 °C 1.8 °C 1017.8 hPa Calm   3.2 km/h 59% 0 mm 0.0 W/m2
05:38 9.3 °C 1.7 °C 1018.2 hPa ESE 1.4 km/h 1.6 km/h 59% 0 mm 0.0 W/m2
05:43 9.3 °C 1.9 °C 1018.2 hPa Calm   3.2 km/h 60% 0 mm 0.0 W/m2
05:48 9.2 °C 1.6 °C 1018.2 hPa Calm   8 km/h 59% 0 mm 0.0 W/m2
05:53 9.3 °C 1.7 °C 1018.2 hPa Calm   1.6 km/h 59% 0 mm 0.0 W/m2
05:58 9.2 °C 1.8 °C 1018.2 hPa ESE 3.2 km/h 3.2 km/h 60% 0 mm 0.0 W/m2
06:03 9.2 °C 1.8 °C 1018.2 hPa Calm   1.6 km/h 60% 0 mm 0.0 W/m2
06:08 9.2 °C 1.8 °C 1018.2 hPa ESE 1.4 km/h 4.8 km/h 60% 0 mm 0.0 W/m2
06:13 9.1 °C 2.2 °C 1018.2 hPa Calm   3.2 km/h 62% 0 mm 0.0 W/m2
06:18 9 °C 1.9 °C 1018.2 hPa Calm   1.6 km/h 61% 0 mm 0.0 W/m2
06:24 8.9 °C 1.8 °C 1018.2 hPa Calm     61% 0 mm 0.0 W/m2
06:29 8.9 °C 1.8 °C 1018.2 hPa Calm   3.2 km/h 61% 0 mm 0.0 W/m2
06:34 8.9 °C 2 °C 1018.2 hPa Calm   1.6 km/h 62% 0 mm 0.0 W/m2
06:39 8.9 °C 2 °C 1018.2 hPa Calm   3.2 km/h 62% 0 mm 0.0 W/m2
06:44 8.9 °C 2 °C 1018.2 hPa Calm   1.6 km/h 62% 0 mm 0.0 W/m2
06:49 8.8 °C 1.9 °C 1018.2 hPa Calm   4.8 km/h 62% 0 mm 0.0 W/m2
06:54 8.8 °C 1.9 °C 1018.2 hPa Calm   8 km/h 62% 0 mm 0.0 W/m2
06:59 8.8 °C 1.9 °C 1018.5 hPa Calm   3.2 km/h 62% 0 mm 0.0 W/m2
07:04 8.8 °C 1.9 °C 1018.5 hPa ESE 1.4 km/h 3.2 km/h 62% 0 mm 0.0 W/m2
07:09 8.8 °C 1.9 °C 1018.5 hPa ESE 1.4 km/h 3.2 km/h 62% 0 mm 0.0 W/m2
07:15 8.8 °C 1.9 °C 1018.5 hPa Calm   4.8 km/h 62% 0 mm 0.0 W/m2
07:20 8.8 °C 1.9 °C 1018.5 hPa ESE 1.4 km/h 4.8 km/h 62% 0 mm 0.0 W/m2
07:25 8.8 °C 1.9 °C 1018.8 hPa ESE 3.2 km/h 6.4 km/h 62% 0 mm 5.0 W/m2
07:30 8.8 °C 2.1 °C 1018.8 hPa ESE 1.4 km/h 4.8 km/h 63% 0 mm 7.0 W/m2
07:35 8.8 °C 2.1 °C 1018.8 hPa ESE 1.4 km/h 3.2 km/h 63% 0 mm 9.0 W/m2
07:40 8.7 °C 2 °C 1018.8 hPa Calm   1.6 km/h 63% 0 mm 11.0 W/m2
07:45 8.7 °C 2 °C 1018.8 hPa Calm   3.2 km/h 63% 0 mm 12.0 W/m2
07:50 8.7 °C 2.3 °C 1018.8 hPa Calm   1.6 km/h 64% 0 mm 14.0 W/m2
07:55 8.8 °C 2.4 °C 1018.8 hPa Calm   4.8 km/h 64% 0 mm 14.0 W/m2
08:01 8.8 °C 2.6 °C 1018.8 hPa ESE 4.7 km/h 6.4 km/h 65% 0 mm 16.0 W/m2
08:06 8.9 °C 2.5 °C 1018.8 hPa Calm   1.6 km/h 64% 0 mm 18.0 W/m2
08:11 9.1 °C 2.6 °C 1018.8 hPa Calm   4.8 km/h 64% 0 mm 19.0 W/m2
08:16 9.3 °C 2.8 °C 1018.8 hPa ESE 1.4 km/h 3.2 km/h 64% 0 mm 19.0 W/m2
08:21 9.5 °C 3 °C 1018.8 hPa Calm   3.2 km/h 64% 0 mm 21.0 W/m2
08:26 9.8 °C 3.1 °C 1019.2 hPa Calm   3.2 km/h 63% 0 mm 23.0 W/m2
08:31 10.1 °C 3.4 °C 1019.2 hPa Calm   1.6 km/h 63% 0 mm 23.0 W/m2
08:36 10.4 °C 3.4 °C 1019.2 hPa Calm     62% 0 mm 25.0 W/m2
08:42 10.7 °C 3.7 °C 1019.5 hPa Calm   1.6 km/h 62% 0 mm 26.0 W/m2
08:47 11 °C 3.8 °C 1019.5 hPa Calm     61% 0 mm 26.0 W/m2
08:52 11.2 °C 4 °C 1019.5 hPa Calm     61% 0 mm 28.0 W/m2
08:57 11.4 °C 4.4 °C 1019.5 hPa Calm     62% 0 mm 28.0 W/m2
09:02 11.7 °C 4.9 °C 1019.5 hPa Calm     63% 0 mm 33.0 W/m2
09:07 12.4 °C 5.1 °C 1019.5 hPa Calm     61% 0 mm 84.0 W/m2
09:12 13.1 °C 5.7 °C 1019.5 hPa Calm   1.6 km/h 61% 0 mm 345.0 W/m2
09:17 13.9 °C 5.5 °C 1019.5 hPa Calm   3.2 km/h 57% 0 mm 360.0 W/m2
09:22 15 °C 5.2 °C 1019.5 hPa Calm   1.6 km/h 52% 0 mm 378.0 W/m2
09:28 16.2 °C 5.5 °C 1019.5 hPa ESE 1.4 km/h 1.6 km/h 49% 0 mm 394.0 W/m2
09:33 17.2 °C 4.5 °C 1019.5 hPa Calm   6.4 km/h 43% 0 mm 411.0 W/m2
09:38 18.1 °C 3.9 °C 1019.5 hPa NE 1.4 km/h 6.4 km/h 39% 0 mm 427.0 W/m2
09:43 18.7 °C 4.1 °C 1019.9 hPa NE 1.4 km/h 3.2 km/h 38% 0 mm 443.0 W/m2
09:48 19.3 °C 3.9 °C 1019.9 hPa Calm     36% 0 mm 457.0 W/m2
09:53 19.8 °C 3.9 °C 1019.9 hPa Calm   4.8 km/h 35% 0 mm 473.0 W/m2
09:58 20.1 °C 3.7 °C 1019.9 hPa NNW 4.7 km/h 4.8 km/h 34% 0 mm 487.0 W/m2
10:03 20.3 °C 3.9 °C 1019.9 hPa Calm   4.8 km/h 34% 0 mm 501.0 W/m2
10:08 20.7 °C 3.8 °C 1019.9 hPa NNW 1.4 km/h 4.8 km/h 33% 0 mm 513.0 W/m2
10:14 20.9 °C 4 °C 1019.9 hPa NW 4.7 km/h 4.8 km/h 33% 0 mm 527.0 W/m2
10:19 21.3 °C 3.5 °C 1019.5 hPa NNW 3.2 km/h 11.3 km/h 31% 0 mm 540.0 W/m2
10:24 21.4 °C 3.6 °C 1019.5 hPa Calm   4.8 km/h 31% 0 mm 552.0 W/m2
10:29 21.6 °C 3.7 °C 1019.5 hPa North 1.4 km/h 6.4 km/h 31% 0 mm 564.0 W/m2
10:34 21.8 °C 4.4 °C 1019.5 hPa NNW 3.2 km/h 9.7 km/h 32% 0 mm 577.0 W/m2
10:39 22 °C 4.1 °C 1019.5 hPa Calm   3.2 km/h 31% 0 mm 587.0 W/m2
10:44 22.2 °C 4.3 °C 1019.5 hPa Calm   4.8 km/h 31% 0 mm 598.0 W/m2
10:49 22.3 °C 3.9 °C 1019.5 hPa WNW 4.7 km/h 6.4 km/h 30% 0 mm 610.0 W/m2
10:54 22.4 °C 3.5 °C 1019.5 hPa WNW 1.4 km/h 4.8 km/h 29% 0 mm 619.0 W/m2
10:59 22.3 °C 3.4 °C 1019.5 hPa NNW 3.2 km/h 8 km/h 29% 0 mm 628.0 W/m2
11:05 22.4 °C 3 °C 1019.5 hPa NW 6.4 km/h 12.9 km/h 28% 0 mm 636.0 W/m2
11:10 22.4 °C 3 °C 1019.5 hPa NW 1.4 km/h 8 km/h 28% 0 mm 645.0 W/m2
11:15 22.5 °C 2.6 °C 1019.5 hPa North 4.7 km/h 4.8 km/h 27% 0 mm 654.0 W/m2
11:20 22.5 °C 2.6 °C 1019.2 hPa NNW 4.7 km/h 9.7 km/h 27% 0 mm 661.0 W/m2
11:25 22.7 °C 2.2 °C 1019.2 hPa NNW 4.7 km/h 11.3 km/h 26% 0 mm 666.0 W/m2
11:30 22.8 °C 2.8 °C 1019.2 hPa NNW 1.4 km/h 9.7 km/h 27% 0 mm 673.0 W/m2
11:35 22.9 °C 3.4 °C 1019.2 hPa WSW 3.2 km/h 8 km/h 28% 0 mm 675.0 W/m2
11:40 22.8 °C 2.8 °C 1019.2 hPa NNW 1.4 km/h 8 km/h 27% 0 mm 684.0 W/m2
11:45 22.9 °C 3.4 °C 1018.8 hPa Calm   6.4 km/h 28% 0 mm 684.0 W/m2
11:51 23 °C 2.5 °C 1018.8 hPa NW 1.4 km/h 11.3 km/h 26% 0 mm 694.0 W/m2
11:56 23 °C 2.5 °C 1018.8 hPa NW 3.2 km/h 11.3 km/h 26% 0 mm 696.0 W/m2
12:01 23 °C 2.5 °C 1018.8 hPa SW 3.2 km/h 8 km/h 26% 0 mm 701.0 W/m2
12:06 23.1 °C 2.5 °C 1018.8 hPa NW 1.4 km/h 4.8 km/h 26% 0 mm 705.0 W/m2
12:11 23.2 °C 2.6 °C 1018.8 hPa Calm   4.8 km/h 26% 0 mm 707.0 W/m2
12:16 23.3 °C 2.7 °C 1018.8 hPa Calm   4.8 km/h 26% 0 mm 712.0 W/m2
12:21 23.4 °C 2.2 °C 1018.5 hPa Calm   9.7 km/h 25% 0 mm 715.0 W/m2
12:26 23.4 °C 2.2 °C 1018.5 hPa NNE 4.7 km/h 11.3 km/h 25% 0 mm 717.0 W/m2
12:31 23.6 °C 3 °C 1018.5 hPa Calm   12.9 km/h 26% 0 mm 715.0 W/m2
12:37 23.6 °C 2.4 °C 1018.2 hPa NNW 7.9 km/h 12.9 km/h 25% 0 mm 719.0 W/m2
12:42 23.6 °C 2.4 °C 1018.5 hPa NNW 9.7 km/h 19.3 km/h 25% 0 mm 715.0 W/m2
12:47 23.7 °C 2.5 °C 1018.2 hPa Calm   1.6 km/h 25% 0 mm 719.0 W/m2
12:52 23.7 °C 2.5 °C 1018.2 hPa NE 1.4 km/h 12.9 km/h 25% 0 mm 719.0 W/m2
12:57 23.8 °C 2.6 °C 1018.2 hPa Calm   11.3 km/h 25% 0 mm 721.0 W/m2
13:02 23.8 °C 2.6 °C 1018.2 hPa SSW 4.7 km/h 14.5 km/h 25% 0 mm 719.0 W/m2
13:07 23.9 °C 2.7 °C 1017.8 hPa West 4.7 km/h 8 km/h 25% 0 mm 717.0 W/m2
13:12 23.9 °C 2.7 °C 1017.8 hPa WNW 1.4 km/h 11.3 km/h 25% 0 mm 714.0 W/m2
13:18 23.9 °C 2.7 °C 1017.8 hPa SW 1.4 km/h 8 km/h 25% 0 mm 710.0 W/m2
13:23 23.8 °C 2 °C 1017.8 hPa WSW 3.2 km/h 4.8 km/h 24% 0 mm 708.0 W/m2
13:28 23.7 °C 2.5 °C 1017.5 hPa Calm   4.8 km/h 25% 0 mm 705.0 W/m2
13:33 23.7 °C 2.5 °C 1017.5 hPa NNE 7.9 km/h 12.9 km/h 25% 0 mm 700.0 W/m2
13:38 23.8 °C 2 °C 1017.5 hPa West 4.7 km/h 9.7 km/h 24% 0 mm 694.0 W/m2
13:43 24 °C 2.8 °C 1017.2 hPa NNW 1.4 km/h 3.2 km/h 25% 0 mm 687.0 W/m2
13:48 24.1 °C 2.3 °C 1017.2 hPa Calm   9.7 km/h 24% 0 mm 684.0 W/m2
Olympia, Windhoek, Namibia
Compliments of Weather Underground - 2.75 mb